Weather Roundup
Issued by NWS

Home | Current Version | Previous Version | Text Only | Print | Product List | Glossary On
Versions: 1 2 3 4 5 6 7 8 9 10 11 12 13 14 15 16 17 18 19 20 21 22 23 24 25 26 27 28 29 30 31 32 33 34 35 36 37 38 39 40 41 42 43 44 45 46 47 48 49 50
000
NZUS93 KARX 031659
HRRWXR

CURRENT HOURLY OBSERVATIONS ACROSS
MUCH OF THE UPPER MISSISSIPPI VALLEY
NATIONAL WEATHER SERVICE LA CROSSE WI
1200 PM CDT MON AUG 03 2015


...SOUTHEAST MINNESOTA...


CITY           SKY/WX    TMP DP  RH WIND       PRES   REMARKS
ROCHESTER      MOSUNNY   73  56  54 NW13      29.95R
ROCHESTER/MAYO FAIR      73  45  36 W16G25    29.93S
WINONA         MOSUNNY   75  52  43 N9G16     29.90S
AUSTIN         SUNNY     73  52  46 W10       29.95F
ALBERT LEA     SUNNY     73  54  49 NW10G17   29.96S
DODGE CENTER   SUNNY     72  52  49 NW8       29.95R
PRESTON        SUNNY     72  50  45 W12G20    29.95S
OWATONNA       SUNNY     75  52  43 W12       29.95S
FARIBAULT      SUNNY     73  54  49 NW10      29.94S
$$

...ELSEWHERE IN MINNESOTA...


CITY           SKY/WX    TMP DP  RH WIND       PRES   REMARKS
MINNEAPOLIS    SUNNY     76  50  40 NW15      29.92R
INTNL FALLS    CLOUDY    65  54  67 NW15G22   29.84R
DULUTH         PTSUNNY   65  51  60 NW16G23   29.86R
RED WING       SUNNY     77  45  31 NW10      29.90S
REDWOOD FALLS  SUNNY     77  50  38 W14       29.96S
MANKATO        SUNNY     73  50  43 NW13      29.96R
WORTHINGTON    SUNNY     73  54  49 W9        30.00F
FAIRMONT       SUNNY     75  50  41 NW10G16   29.97F
$$

...SOUTHWEST WISCONSIN...


CITY           SKY/WX    TMP DP  RH WIND       PRES   REMARKS
LA CROSSE      SUNNY     78  48  34 NW15      29.89R
PRAIRIE DU CHI SUNNY     78  44  30 W10       29.92R
BOSCOBEL       SUNNY     81  50  33 NW12G21   29.91S
LONE ROCK      NOT AVBL
PLATTEVILLE    SUNNY     75  50  40 W10       29.93S
FORT MC COY    MOSUNNY   76  43  30 NW13G25   29.90R
VIROQUA        FAIR      73  51  46 NW9       29.92S
WIS DELLS      MOSUNNY   76  42  28 W16G25    29.88R
$$

...ELSEWHERE IN WISCONSIN...


CITY           SKY/WX    TMP DP  RH WIND       PRES   REMARKS
MILWAUKEE      MOSUNNY   77  43  29 W15G23    29.84S
MADISON        MOSUNNY   76  46  34 NW13G24   29.88R
GREEN BAY      SUNNY     75  56  51 W13       29.80S
EAU CLAIRE     NOT AVBL
BLACK RVR FLS  FAIR      78  43  28 W18G25    29.88R
MEDFORD        MOSUNNY   68  52  56 W12G20    29.85R
WAUSAU         SUNNY     74  47  38 W20       29.82R
WIS RAPIDS     SUNNY     77  44  30 NW18      29.86F
MARSHFIELD     SUNNY     73  45  36 NW17G25   29.85S
RICE LAKE      SUNNY     70  51  51 W12G17    29.89S
$$

...NORTHEAST IOWA...


CITY           SKY/WX    TMP DP  RH WIND       PRES   REMARKS
DECORAH        SUNNY     73  52  46 W8G18     29.93S
MASON CITY     SUNNY     77  54  44 W12       29.99R
CHARLES CITY   SUNNY     75  57  53 W12G18    29.97R
OELWEIN        SUNNY     75  52  43 NW9       29.97R
$$

...ELSEWHERE IN IOWA...


CITY           SKY/WX    TMP DP  RH WIND       PRES   REMARKS
DES MOINES     MOSUNNY   80  53  39 CALM      29.97F
IOWA CITY      SUNNY     78  54  43 N8        29.96R
FORT DODGE     SUNNY     75  52  43 NW5       30.00F
$$

...NORTHERN ILLINOIS...


CITY           SKY/WX    TMP DP  RH WIND       PRES   REMARKS
CHICAGO-OHARE  MOSUNNY   79  54  41 NW12      29.86S
CHICAGO-MIDWAY MOSUNNY   81  56  42 NW9       29.86R
MOLINE         SUNNY     80  53  39 N7        29.93R
ROCKFORD       MOSUNNY   79  47  32 NW7       29.91S
PEORIA         SUNNY     82  63  52 NW8       29.91R
$$

NOTE: "FAIR" INDICATES FEW OR NO CLOUDS BELOW 12,000 FEET WITH NO
SIGNIFICANT WEATHER AND/OR OBSTRUCTIONS TO VISIBILITY. WIND
SPEEDS ARE IN MILES-PER-HOUR.



USA.gov is the U.S. government's official web portal to all federal, state and local government web resources and services.